Home > Weather > Ancona > Past weeks

Flag for Italy Weather for the Past 2 Weeks in Ancona, Italy

Now
54 °F

Light rain. Passing clouds.


Feels Like: 54 °F
Forecast: 52 / 57 °F
Wind: 1 mph from North

Location: Falconara

Current Time: Apr 29, 2016 at 12:28:53 AM

Latest Report: Apr 28, 2016 at 10:50 PM


Visibility: N/A

Pressure: 29.95 "Hg

Humidity: 94%

Dew Point: 52 °F

Location of AnconaLocation

Historic Weather in Ancona — Graph

°F

Ancona Temperature Yesterday

Maximum temperature yesterday: 64 °F (at 12:50 PM)
Minimum temperature yesterday: 52 °F (at 4:50 AM)
Average temperature yesterday: 57 °F

High & Low Weather Summary for the Past Weeks

 TemperatureHumidityPressure
High77 °F (Apr 15, 4:50 PM)100% (Apr 28, 5:50 PM)30.33 "Hg (Apr 28, 5:50 PM)
Low36 °F (Apr 26, 4:50 AM)24% (Apr 15, 1:50 PM)29.50 "Hg (Apr 24, 5:50 AM)
Average58 °F66%29.90 "Hg
* Reported Apr 13 10:50 PM — Apr 28 10:50 PM, Ancona, Weather by CustomWeather, © 2016

Note: Actual official high and low records may vary slightly from our data, if they occured in-between our weather recording intervals... More about our weather records

Advertising

Ancona Weather History for the Previous 24 Hours

Scroll right to see more
 ConditionsComfort  
Time TempWeatherWind HumidityBarometerVisibility
10:50 PM
Thu, Apr 28
54 °FLight rain. Passing clouds.1 mph94%29.95 "HgN/A
9:50 PM54 °FLight rain. Partly cloudy.3 mph94%29.95 "HgN/A
8:50 PM54 °FLight rain. Broken clouds.1 mph100%29.95 "HgN/A
7:50 PM54 °FLight rain. Broken clouds.1 mph94%29.92 "Hg5 mi
6:50 PM55 °FLight rain. Fog.3 mph94%29.92 "Hg3 mi
5:50 PM55 °FLight rain. Fog.5 mph100%29.92 "Hg2 mi
4:50 PM55 °FRain. Broken clouds.3 mph94%29.92 "Hg2 mi
3:50 PM55 °FRain. Broken clouds.3 mph94%29.92 "Hg2 mi
2:50 PM59 °FLight rain. Broken clouds.5 mph82%29.92 "HgN/A
1:50 PM63 °FLight rain. Broken clouds.7 mph68%29.92 "HgN/A
12:50 PM64 °FPartly sunny.7 mph56%29.92 "HgN/A
11:50 AM63 °FPartly sunny.3 mph64%29.92 "HgN/A
10:50 AM63 °FPartly sunny.6 mph56%29.92 "HgN/A
9:50 AM63 °FPartly sunny.6 mph56%29.92 "HgN/A
8:50 AM63 °FPartly sunny.7 mph56%29.89 "HgN/A
7:50 AM59 °FScattered clouds.1 mph72%29.89 "HgN/A
6:50 AM55 °FPassing clouds.1 mph72%29.89 "HgN/A
5:50 AM54 °FPassing clouds.1 mph72%29.89 "HgN/A
4:50 AM52 °FPassing clouds.7 mph77%29.89 "HgN/A
3:50 AM54 °FPassing clouds.3 mph72%29.89 "HgN/A
2:50 AM54 °FPassing clouds.5 mph77%29.89 "HgN/A
1:50 AM55 °FPassing clouds.5 mph67%29.89 "HgN/A
12:50 AM54 °FPassing clouds.2 mph72%29.89 "HgN/A
Weather by CustomWeather, © 2016

See weather overviewHow to use our weather pages